DELTA 1 DEB, 10868

Orbit data source: Space-Track

DELTA 1 DEB, 10868 is space debris in SSO originally from a launch on Thu, 29 Jul 1976 UTC launched from the Air Force Western Test Range (AFWTR). Debris objects in space refer to the collection of defunct objects orbiting the Earth. Examples of debris include non-operational satellites, rocket bodies, and fragments generated from explosions, collisions, or faulty payload assembly.

Loading next visibility...
Identifier
10868, 1976-077CW
Orbit
SSO
Country
Flag of USUS
Related business
Manufacturer
Unknown
Mission
Spacecraft
Bus & Motor
Unknown
Mass
Unknown
Launch date (UTC)
1976-07-29 (50 years ago)
Launch vehicle
Unknown
Launch site
Air Force Western Test Range (AFWTR)
Object type
Payload
Rocket body
Debris
Shape & HBR
Unknown shape, 0.1 m
Radar Cross Section
Small (<0.1 m²)

Expand to show TLE details & history
Last TLE update: 10 hours ago

TLE from 10 hours ago
0 DELTA 1 DEB
1 10868U 76077CW  26045.27227745  .00000507  00000-0  40995-2 0  9994
2 10868 102.4219 249.4412 0107263 290.3354 235.0328 12.39499358227619
Epoch: 2026-02-14T06:32Z
TLE epoch observation values (Epoch: 2026-02-14T06:32:04.771Z)
Latitude
15.23732°
Longitude
-169.45336°
Altitude
1,559.672 km
Speed
7.067 km/s
True Right ascension
04h 51m 27s
True Declination
15° 09' 33"
Sunlit
Object was in daylight at epoch
Visualization orbit readout
Latitude
Unknown
Longitude
Unknown
Altitude
Unknown
Speed
Unknown
Apparent Right ascension
Unknown
Apparent Declination
Unknown
Sunlit
N/A
Visualization observer readout
Local Sidereal Time
18:52:44
Azimuth
Unknown
Elevation
Unknown
Doppler factor
Unknown
Orbital elements
Apogee altitude
1,590.898 km
Perigee altitude
1,421.755 km
Semi-major axis
7,884.464 km
Eccentricity
0.01073
Inclination
102.4219°
RAAN
249.4412°
Arg. of periapsis
290.3354°
True anomaly
234.03328°
Mean anomaly
235.0328°
Eccentric anomaly
234.53227°
Mean motion
3.10017 °/min
Orbital period
116.12 mins
BSTAR
0.0040995
Loading maneuver chart data...
Computing Atmospheric mass density...
Loading historical data...
Loading historical data...
Loading historical data...
Loading historical data...
Loading historical data...
Loading historical data...
Loading historical data...

Documentation

Showing up to 5 results
|